GFSGL_850_rhum_024.txt.gz
RH
53 62 59 49 45 42 51 56 53 50 54 58 58 59 62 64 63 66 69 74 82 77 81 89 96 98 85 81 79 72 67 65 66 65 63 63 67 70 55 67 64 62 64
64 60 58 44 49 51 51 55 56 56 58 60 61 61 64 64 65 60 58 72 74 80 82 85 93 86 90 82 73 69 67 64 67 67 71 74 80 65 74 74 75 75 78
61 56 52 51 49 48 50 54 57 58 60 62 63 64 65 64 70 84 81 81 72 79 82 86 90 93 82 78 74 66 65 59 77 82 80 75 79 78 73 81 84 85 75
56 57 44 44 47 47 52 56 58 58 62 65 66 64 64 64 67 77 83 83 76 86 90 86 86 78 74 67 65 62 61 72 80 84 87 80 81 71 75 79 73 83 68
66 45 45 39 42 48 54 57 56 58 62 65 64 64 64 67 80 86 87 73 88 89 88 83 76 67 65 65 66 72 81 88 84 81 80 79 77 85 81 82 90 81 72
59 46 40 44 46 50 53 58 54 53 55 60 64 66 69 74 81 84 82 60 63 73 80 75 71 68 64 66 79 91 94 91 84 93 90 94 90 97 94 94 89 85 86
57 49 50 47 51 57 52 47 47 48 53 59 66 69 72 75 79 80 66 52 59 76 80 78 76 76 76 80 78 73 48 69 90 84 92 97 97 98 92 79 75 80 77
54 51 50 65 55 43 40 35 48 50 56 62 68 69 74 80 81 83 79 64 69 80 86 80 85 85 82 71 65 33 23 49 82 82 84 81 83 74 72 80 80 85 80
52 63 87 61 46 38 43 49 52 57 62 69 72 70 70 74 78 86 88 79 75 80 87 87 90 89 82 77 61 28 24 29 68 73 47 58 76 85 90 100 83 92 87
88 64 64 50 45 38 52 64 74 71 74 75 75 74 70 75 79 84 88 82 74 81 88 89 90 92 91 82 51 31 32 42 36 52 80 84 83 91 95 97 97 97 94
82 80 60 45 39 63 79 83 79 77 82 79 79 78 71 75 80 82 72 74 76 82 72 73 98 94 88 59 46 48 61 68 71 79 88 86 92 91 86 85 97 97 97
63 63 45 26 43 84 82 80 79 84 87 82 87 89 86 87 78 80 80 82 76 75 71 73 90 78 66 58 62 73 81 82 90 91 84 88 88 89 90 89 94 97 98
82 40 25 54 82 77 72 77 76 76 90 88 87 91 91 83 80 98 99 92 78 78 78 79 77 70 75 80 84 95 96 86 97 83 87 87 91 92 92 90 88 89 96
34 32 68 62 54 64 76 80 86 87 82 88 99 94 92 91 91 98 92 93 93 88 83 87 81 74 91 93 94 97 94 91 91 98 86 88 89 92 90 95 96 92 87
32 36 38 40 46 70 88 89 91 88 96 92 92 99 99 97 95 92 89 84 96 98 98 92 86 80 93 85 83 87 88 85 94 94 83 88 92 87 90 92 96 93 94
38 38 40 47 55 75 87 97 87 85 85 94 88 88 92 97 96 86 82 73 83 87 91 87 82 81 91 86 83 93 88 91 92 87 94 94 95 88 88 92 93 94 92
43 45 50 65 80 90 91 88 93 90 92 96 95 92 93 96 95 96 94 87 83 90 90 86 80 85 88 85 84 92 96 96 89 92 95 95 95 93 84 98 94 91 85
61 63 68 87 98 92 93 97 100 95 88 77 89 88 90 92 91 94 93 100 96 92 90 92 90 86 82 89 83 92 94 89 94 93 92 95 96 95 90 86 85 98 89
77 76 88 95 98 98 95 94 89 89 82 82 88 91 90 89 92 90 99 99 96 91 93 92 90 92 97 100 88 87 90 98 94 90 95 96 100 97 94 96 84 85 94
85 89 88 93 93 89 95 95 90 94 96 88 84 89 90 94 99 84 91 94 94 92 94 92 88 90 99 100 99 93 95 96 93 94 95 96 100 97 96 95 97 85 90
95 96 93 93 97 98 90 86 90 94 98 96 86 81 88 95 97 97 91 86 86 93 88 85 85 87 84 86 89 94 98 95 94 96 95 100 99 86 95 97 95 97 83
99 99 100 100 90 92 87 83 80 81 87 93 94 92 93 94 96 97 97 96 94 90 94 96 93 94 96 94 93 91 92 97 95 95 89 92 89 91 98 96 96 96 96
100 98 99 99 97 97 96 81 82 89 92 95 96 94 95 94 96 96 97 96 96 96 96 97 97 93 90 97 96 96 95 98 91 90 88 67 70 86 100 95 97 96 93
93 96 99 98 97 96 96 94 96 87 95 96 96 96 96 97 97 96 97 97 97 97 98 97 97 97 97 95 94 93 90 87 87 74 74 60 65 71 91 98 98 98 98
88 94 94 97 94 98 97 97 94 89 93 91 96 98 97 96 94 97 96 96 95 95 95 96 98 96 96 97 96 95 95 87 85 73 68 57 60 66 70 76 79 87 97
100 98 99 100 100 99 98 97 95 97 100 100 100 100 97 97 96 93 88 90 95 96 97 100 93 92 97 97 97 97 97 96 95 88 73 67 57 63 69 80 87 82 89

GFSGL_850_rhum_030.txt.gz
RH
67 64 68 67 59 56 57 53 40 50 62 48 44 41 42 52 43 48 65 66 66 68 67 71 73 76 82 86 85 89 92 93 83 72 63 48 40 35 34 42 53 58 60
56 61 64 59 56 57 55 46 51 62 57 54 55 56 51 54 47 44 64 65 74 69 75 80 79 87 87 91 95 95 81 72 68 62 51 44 35 40 54 60 60 62 65
61 64 63 59 55 61 50 53 56 60 56 58 58 57 49 55 55 62 58 65 77 84 93 88 87 92 92 89 82 74 70 68 61 65 58 44 35 54 62 64 66 71 68
64 63 60 56 58 59 51 56 63 57 59 67 59 45 48 53 62 65 63 68 78 88 89 92 89 90 87 82 75 73 69 67 71 65 50 31 39 58 73 78 74 75 63
64 61 56 57 59 54 52 57 58 64 72 73 47 46 44 59 65 66 68 70 69 80 77 61 75 77 75 77 74 72 74 78 76 58 36 27 50 72 89 90 89 78 59
66 58 58 59 55 52 56 59 64 75 83 48 53 43 55 63 65 70 70 71 77 75 68 61 52 49 54 71 76 80 83 78 61 43 28 36 72 91 91 87 77 78 91
61 61 59 59 52 57 59 63 82 95 88 62 42 57 62 62 66 70 72 78 81 77 80 80 74 59 58 70 78 85 84 70 60 37 34 48 70 74 70 90 95 96 92
62 60 63 54 55 61 74 95 94 94 68 44 51 56 60 66 73 74 76 77 81 86 90 89 73 64 66 74 80 76 69 66 47 46 53 54 65 80 91 98 99 97 86
70 66 64 71 80 92 93 93 92 52 46 50 56 62 69 77 77 77 80 81 82 88 90 75 64 66 76 78 70 62 56 48 51 62 68 73 68 85 97 99 94 92 88
70 74 90 95 98 99 94 73 51 50 53 55 62 73 78 84 86 85 89 83 78 83 80 70 69 64 69 65 66 55 48 56 65 68 70 75 67 67 83 88 95 97 98
80 94 98 99 100 92 64 48 47 56 59 67 49 47 68 86 90 92 92 87 85 85 86 83 75 70 65 64 54 50 62 72 76 84 82 84 85 82 77 84 87 92 96
98 99 100 85 62 40 45 48 50 53 50 47 54 59 60 82 84 96 97 95 92 87 87 94 84 75 71 56 58 62 73 82 83 90 86 86 93 82 72 72 81 85 92
92 66 55 34 33 36 37 46 47 46 48 53 64 84 74 65 76 87 98 98 95 93 91 97 92 85 82 76 72 70 78 80 83 92 88 91 94 84 80 67 83 91 77
44 29 27 28 30 34 39 42 46 48 55 69 90 92 83 75 79 81 86 97 99 99 99 96 97 94 91 90 86 73 82 83 80 92 94 97 96 81 77 74 92 85 73
27 27 30 34 37 39 43 47 52 56 69 79 85 80 71 68 76 89 97 87 92 97 98 97 98 91 91 96 89 83 81 88 82 92 100 100 96 78 81 78 82 83 83
44 49 52 52 47 50 55 57 65 73 85 86 80 80 80 75 72 88 99 97 98 99 97 96 93 89 87 82 86 88 82 90 82 86 100 100 88 79 84 86 80 78 87
58 61 69 80 86 87 86 88 89 77 88 83 81 88 89 80 80 82 96 95 96 100 96 93 90 90 91 85 86 87 79 86 87 88 96 94 72 81 82 88 91 81 77
70 75 81 92 99 97 97 96 96 95 80 76 89 96 84 82 88 84 85 97 97 98 96 96 93 85 89 88 84 85 81 90 97 96 97 94 70 75 79 90 91 91 82
58 64 77 92 98 97 91 94 97 96 97 98 90 80 75 74 74 87 89 91 96 96 97 97 95 89 92 90 80 82 81 88 93 100 99 96 84 77 78 86 93 89 90
30 42 71 86 88 90 87 98 88 97 100 98 97 88 78 71 76 91 90 92 92 94 94 94 97 93 92 91 87 86 91 96 98 95 97 99 80 72 70 81 90 87 91
18 23 31 34 45 55 62 79 82 83 81 93 97 99 97 85 83 84 95 94 95 96 95 95 95 96 93 95 89 84 85 87 90 92 97 99 77 67 68 74 86 86 93
30 43 66 85 93 99 100 100 96 98 100 100 100 94 96 82 84 90 94 100 97 98 96 96 96 96 96 96 96 91 90 90 90 95 98 100 94 78 67 63 79 82 92
40 49 64 80 93 95 93 94 96 100 100 98 97 97 96 89 92 97 98 97 98 98 93 93 96 97 96 96 96 96 96 92 90 97 97 99 98 90 75 60 71 74 83
53 56 63 73 79 83 87 92 92 92 94 95 96 96 96 98 97 98 97 95 93 91 95 96 96 97 97 97 97 97 98 95 97 96 96 97 98 95 76 59 64 69 76
55 58 67 75 80 82 85 88 90 92 94 95 95 96 96 96 96 96 97 92 88 83 84 95 98 97 96 96 98 96 92 96 96 96 97 96 96 94 76 57 61 69 71
58 62 68 73 78 83 86 89 91 91 92 91 93 95 96 96 96 96 95 92 87 86 86 86 88 94 94 96 97 98 97 92 97 96 96 97 96 93 74 61 57 65 70

GFSGL_850_rhum_033.txt.gz
RH
78 75 75 72 71 71 71 65 59 66 66 48 66 62 52 40 40 46 42 41 53 60 70 72 74 80 77 76 82 89 95 97 94 78 70 66 52 44 33 32 46 52 56
79 77 78 76 68 66 62 60 57 53 45 60 54 56 58 40 43 37 49 60 56 57 72 70 81 83 88 89 96 97 92 81 72 71 67 57 49 39 29 40 50 56 61
76 76 73 70 70 66 59 56 56 51 57 61 57 61 49 42 40 46 56 64 63 67 72 77 76 86 80 93 90 85 77 74 73 68 70 62 46 33 30 38 50 54 48
71 66 66 67 67 65 58 57 53 54 59 59 64 66 60 52 47 56 64 65 68 72 71 72 80 61 80 80 76 75 74 73 75 78 69 52 39 32 37 57 47 53 36
65 63 67 68 66 60 58 53 53 59 60 69 77 84 75 51 51 64 66 68 71 73 76 73 68 59 54 52 52 62 74 78 79 78 62 49 37 37 51 60 53 54 64
66 70 72 66 59 56 55 56 65 68 70 83 99 94 84 49 63 64 66 70 73 76 80 77 77 78 77 68 54 64 74 82 86 80 66 42 43 55 54 60 75 86 96
71 75 69 64 62 60 63 66 70 89 98 94 96 87 58 56 58 65 71 75 77 78 79 82 86 89 83 66 68 72 78 86 86 85 50 52 60 62 59 66 88 97 98
76 74 69 66 63 67 70 83 97 95 88 97 78 58 50 43 52 74 77 76 78 80 82 86 92 81 63 64 74 74 76 79 75 54 57 65 73 64 75 96 97 97 87
76 72 69 68 74 91 97 97 95 100 95 65 51 47 46 42 54 68 78 80 83 86 87 87 87 67 65 58 67 70 70 63 54 60 68 72 78 76 78 75 87 94 83
74 73 81 98 100 98 97 100 99 92 55 50 46 42 38 36 41 65 88 91 90 92 85 86 84 75 76 62 65 67 64 54 59 68 71 72 77 77 78 77 90 99 95
76 80 87 98 100 100 94 59 45 49 50 46 40 39 45 51 54 70 91 90 95 98 96 93 86 85 86 70 64 62 53 60 66 74 74 76 78 79 79 76 73 82 90
97 100 100 93 68 41 36 39 45 50 48 41 44 41 50 59 61 56 79 84 84 98 98 96 88 93 95 84 76 61 68 69 72 77 81 82 87 88 86 76 72 78 98
72 53 41 29 29 33 35 39 40 42 46 48 48 46 44 58 72 73 78 77 87 98 99 96 99 98 100 96 88 81 87 76 81 79 75 80 92 94 92 78 70 78 86
35 31 30 30 33 36 38 39 42 45 52 56 58 56 61 67 64 58 64 89 99 100 89 95 97 98 97 96 96 92 97 83 82 82 76 80 93 98 94 80 76 70 63
37 42 49 56 56 51 51 53 57 60 66 71 72 75 79 73 73 75 70 69 77 98 99 92 94 96 94 95 96 97 100 93 83 82 80 82 95 100 74 79 81 78 72
45 44 44 46 48 53 60 60 72 89 94 96 91 88 74 80 84 92 83 80 77 93 97 95 90 96 96 96 96 94 98 96 86 86 83 90 99 94 65 75 80 84 78
50 52 56 59 63 69 75 83 80 58 84 84 90 95 98 97 98 97 84 88 84 94 99 93 94 98 93 96 95 93 86 89 87 90 85 95 99 95 67 72 75 79 82
37 33 29 27 32 40 49 69 99 100 99 86 69 71 83 92 97 97 82 82 90 82 85 97 96 89 93 96 96 93 87 89 89 85 90 99 100 98 92 72 73 75 84
11 9 10 12 16 23 28 34 48 70 82 99 95 85 91 80 99 95 87 75 82 98 89 91 86 97 94 96 97 96 94 84 84 82 85 98 100 100 94 75 65 75 84
10 12 14 18 23 33 46 61 76 94 95 91 96 87 69 76 73 63 95 90 95 92 94 95 95 97 94 96 97 96 97 85 83 84 85 98 100 100 92 75 61 69 78
13 15 17 24 31 54 75 91 97 97 96 96 100 100 100 99 100 100 95 83 89 96 97 97 97 97 96 96 96 96 93 87 86 88 91 96 100 99 94 78 57 66 76
20 23 29 39 50 57 70 81 87 94 95 95 97 97 99 96 97 97 99 99 98 98 98 95 96 96 96 96 97 97 96 88 80 81 85 94 98 99 99 93 60 63 73
29 32 37 44 50 57 63 70 76 82 88 90 92 94 93 95 96 96 96 96 97 100 99 97 96 96 94 96 96 97 96 96 94 94 94 96 98 100 99 98 78 60 67
37 41 45 50 54 59 65 72 77 80 83 84 84 84 91 94 94 95 95 95 95 97 97 92 87 97 98 96 96 96 97 97 96 96 97 96 97 99 99 99 83 58 64
45 47 51 54 58 62 66 70 74 77 81 84 84 85 86 84 87 92 94 95 94 95 94 86 84 82 88 96 97 96 96 97 97 97 97 96 98 96 97 99 88 58 61
51 55 58 61 62 65 69 71 73 76 78 80 84 87 90 91 91 92 94 95 94 95 95 79 72 80 78 84 95 96 97 96 93 88 97 98 96 97 97 96 86 63 59

GFSGL_850_rhum_036.txt.gz
RH
75 75 79 84 82 67 66 75 86 86 78 63 74 69 68 52 41 37 48 44 51 55 52 56 68 64 73 77 82 83 89 91 91 80 77 73 72 63 55 40 31 30 35
55 69 75 75 65 76 78 75 75 76 63 69 55 59 55 55 45 63 59 50 58 63 63 64 66 66 65 80 69 77 80 86 87 80 75 70 64 56 42 35 32 36 46
55 60 66 81 79 79 73 71 71 61 60 53 59 59 60 54 62 88 50 52 61 65 65 70 69 71 70 63 54 75 80 82 77 75 70 71 60 45 38 36 37 42 42
59 58 78 80 83 76 72 65 59 55 64 55 61 66 62 75 95 70 53 58 66 66 69 73 74 73 64 63 65 63 65 68 70 75 74 70 56 46 40 44 44 46 42
84 88 84 82 77 68 65 65 56 56 55 61 62 68 83 93 96 80 56 64 68 68 71 75 79 75 74 71 67 71 64 65 73 75 76 68 56 45 50 55 56 46 56
82 82 81 81 70 71 68 62 57 59 61 79 76 91 95 99 93 75 64 66 67 70 75 78 79 79 82 82 86 77 68 70 75 82 74 67 52 53 62 63 58 71 98
87 86 81 78 77 75 67 66 68 73 85 90 97 96 99 97 73 60 59 62 70 75 79 81 82 84 88 91 75 63 67 74 77 80 70 56 56 66 76 67 68 86 95
87 87 85 83 80 72 70 74 92 98 95 95 95 100 95 68 52 46 50 61 77 76 81 82 85 88 90 87 64 61 63 73 78 78 57 53 65 71 83 88 86 77 67
86 86 84 80 77 78 93 97 93 93 99 100 99 74 63 46 41 37 41 56 75 80 82 90 95 91 90 84 70 63 58 62 72 62 53 62 74 82 85 88 77 78 65
84 81 80 80 86 87 97 97 100 99 95 60 58 54 52 43 45 42 43 45 72 87 85 93 97 95 96 92 79 73 62 56 65 55 60 72 77 77 78 83 82 83 84
83 82 83 91 98 100 94 75 42 44 42 45 49 46 43 45 46 52 55 54 61 92 84 79 91 98 98 98 91 88 77 68 58 62 70 74 71 76 80 82 76 78 78
99 100 96 76 50 39 35 38 40 42 45 43 44 40 41 46 54 56 65 67 64 74 90 88 89 95 98 97 100 91 92 78 74 72 78 77 76 85 90 87 73 70 73
59 46 35 33 33 35 35 37 38 40 43 44 47 49 49 51 56 64 71 65 64 66 68 79 87 85 87 97 97 96 96 93 86 89 79 83 78 83 86 93 70 67 66
36 35 35 35 35 40 43 46 47 47 54 62 71 78 78 77 76 75 78 75 80 74 69 71 87 97 91 91 98 98 95 96 95 96 85 84 82 83 85 95 63 66 62
41 41 42 43 44 45 48 54 58 64 82 91 94 96 98 96 92 92 97 96 95 91 85 81 79 86 97 92 91 96 96 97 95 96 95 88 84 88 89 83 62 69 71
43 44 42 39 34 30 24 16 14 13 14 23 40 78 84 91 85 93 100 99 98 97 96 87 78 88 95 96 97 97 97 97 96 98 98 90 87 90 94 84 64 71 73
28 22 18 12 8 8 8 9 9 9 15 20 34 83 86 86 83 96 96 97 98 97 98 97 87 75 83 94 95 97 96 95 93 94 94 91 90 92 96 93 80 70 69
12 9 8 9 10 11 14 19 24 30 29 30 58 80 83 80 73 54 62 85 97 97 96 100 100 94 92 89 94 97 95 96 93 87 89 86 91 92 94 95 89 70 71
9 9 10 11 12 16 20 25 35 56 71 82 77 73 81 74 68 56 72 97 94 95 93 100 100 98 92 94 92 96 96 96 97 92 84 86 88 92 92 97 89 68 69
10 11 12 15 18 20 23 29 37 50 67 83 89 91 90 86 85 96 98 100 97 98 98 97 96 95 97 98 98 97 96 96 97 94 80 77 86 94 94 99 89 62 64
13 14 16 19 22 26 33 40 51 59 65 71 78 82 87 95 96 95 96 98 94 96 96 96 98 100 99 94 97 96 96 96 97 95 82 78 88 98 95 99 94 66 58
17 19 22 25 31 36 41 49 55 60 65 70 70 71 72 74 81 89 94 94 95 95 97 97 98 98 99 96 96 95 96 97 97 96 86 86 92 94 95 99 96 80 56
21 24 30 34 38 43 47 51 55 59 64 68 70 72 73 73 76 77 80 89 94 95 96 95 96 97 99 97 96 95 95 95 96 97 93 84 87 93 93 96 98 90 58
28 34 38 42 47 50 52 54 60 62 65 66 69 71 73 75 78 80 81 81 81 87 95 95 95 95 92 84 96 96 96 95 96 97 97 94 92 96 97 96 96 89 64
38 43 47 50 51 53 56 59 62 65 67 69 71 73 76 77 78 79 80 82 83 84 87 95 95 96 91 84 83 92 95 96 96 96 96 97 97 97 96 97 98 93 70
49 53 54 55 57 58 61 63 65 67 67 65 66 70 74 79 82 83 83 83 84 84 88 94 97 97 94 81 86 82 93 95 96 96 96 96 97 96 95 96 98 95 78

GFSGL_850_rhum_042.txt.gz
RH
86 80 69 67 72 76 71 73 75 78 84 94 98 92 85 76 65 84 69 78 89 92 91 75 71 74 74 72 71 71 68 66 73 60 54 51 65 78 71 67 70 65 54
96 97 74 70 67 65 66 70 76 86 95 100 100 95 87 68 77 79 73 76 73 99 83 76 76 72 76 77 71 70 68 65 63 58 57 56 58 62 68 72 68 57 54
77 65 64 60 60 66 70 74 82 94 94 100 100 94 70 75 74 74 84 90 100 99 93 81 76 76 75 73 69 70 66 62 63 64 62 61 59 57 60 63 61 54 55
66 72 75 78 86 91 88 98 100 99 100 99 99 94 83 77 89 74 90 98 100 97 100 91 84 80 76 74 67 68 69 67 65 65 60 58 53 53 58 58 49 46 51
86 86 86 93 91 89 88 89 88 87 91 100 100 85 76 96 79 96 99 99 99 99 98 90 91 90 79 73 67 65 67 66 65 62 59 55 52 52 53 55 50 55 57
76 79 84 88 87 85 84 82 81 76 71 72 75 67 92 76 77 98 100 100 99 99 87 83 82 87 80 71 75 78 74 73 68 69 64 58 56 56 58 57 54 59 58
74 80 85 87 86 85 84 81 74 70 66 83 71 87 82 83 99 100 100 100 96 86 81 75 72 68 78 93 90 87 82 83 84 83 72 67 68 65 66 57 59 63 66
80 85 88 88 86 84 82 81 80 80 93 90 78 84 99 98 99 100 94 68 71 75 72 74 77 76 75 84 92 87 94 91 91 84 69 75 76 77 73 67 76 80 74
89 90 90 88 88 89 83 87 94 96 94 99 95 98 98 98 81 51 58 60 77 76 77 73 74 75 78 85 92 95 90 93 96 92 82 74 66 60 54 63 87 79 80
91 95 98 99 99 99 98 94 99 97 91 71 74 92 84 46 47 45 55 57 85 86 85 83 81 65 46 65 94 88 96 91 97 95 87 78 73 65 52 54 90 84 78
86 84 86 93 98 91 80 65 65 70 54 65 37 44 64 74 61 47 52 63 80 92 93 88 86 90 74 56 69 98 95 98 100 96 94 91 87 80 83 88 89 82 82
95 98 84 53 36 35 32 34 33 59 59 72 73 80 88 92 96 100 96 89 94 99 98 94 98 98 97 74 70 71 91 100 99 98 96 96 93 87 84 80 76 80 84
73 49 36 31 27 26 35 44 73 79 79 81 76 82 80 92 86 76 80 99 100 92 97 84 86 97 98 95 89 77 82 100 100 99 98 100 94 98 93 90 88 91 93
41 33 29 29 38 29 37 26 40 43 42 51 69 75 78 88 89 91 65 71 69 63 88 88 89 89 88 93 97 96 96 89 100 100 99 98 96 95 100 100 96 92 95
33 32 29 20 15 16 22 12 10 20 8 9 24 36 88 97 70 60 66 64 60 50 55 57 70 77 98 89 98 98 94 100 100 98 98 96 96 98 99 100 99 97 97
26 19 15 12 12 15 27 52 25 10 10 11 13 19 24 29 33 36 41 43 51 57 65 96 84 65 73 87 98 97 100 98 99 99 95 96 96 100 99 97 99 98 94
16 14 13 11 10 10 15 28 60 68 32 30 20 19 20 24 26 27 29 32 76 86 100 97 99 97 96 100 97 96 98 100 100 100 99 97 96 96 97 95 99 99 96
15 13 10 9 9 10 11 15 37 48 55 70 75 33 26 26 30 31 34 45 97 100 100 100 100 100 95 99 98 98 99 96 100 100 100 96 100 98 96 97 98 96 95
14 10 8 9 10 11 12 15 22 31 57 70 76 76 56 34 36 52 48 100 100 100 100 100 100 98 99 97 96 97 96 96 98 99 99 99 99 96 95 96 97 96 98
11 9 10 11 13 14 15 18 25 33 45 74 86 93 47 40 67 100 100 100 100 100 100 100 100 100 95 95 95 96 97 97 96 100 99 100 98 98 97 95 96 95 100
11 11 13 14 16 17 20 24 27 32 39 70 97 79 45 46 99 100 100 100 100 100 100 100 100 100 100 97 95 95 95 95 97 99 96 96 95 96 97 95 96 100 100
13 14 16 18 20 22 25 28 33 38 45 73 87 71 44 74 100 100 100 100 100 100 100 100 100 100 98 100 98 95 95 95 97 98 97 98 98 96 97 96 97 100 100
15 18 22 24 26 27 31 35 40 44 51 64 70 64 62 94 89 100 100 100 100 91 99 100 89 80 90 90 89 97 95 95 96 99 98 97 96 95 98 97 100 100 100
20 24 28 30 31 36 40 44 47 54 53 56 62 73 92 94 99 100 100 100 72 70 79 77 73 78 86 84 87 90 96 96 96 96 98 96 96 95 96 98 100 100 100
28 31 34 36 38 43 48 51 55 59 55 58 70 77 84 91 100 100 100 84 69 70 66 67 71 84 86 88 92 93 96 96 96 97 98 96 95 96 96 96 99 100 100
40 41 44 46 56 58 59 60 61 56 55 61 63 74 82 91 93 97 81 76 78 72 72 79 86 93 95 93 95 98 97 96 96 97 98 96 96 95 96 98 96 97 96

GFSGL_850_rhum_045.txt.gz
RH
97 92 96 74 76 76 76 97 100 100 99 98 99 99 97 91 93 73 68 72 74 78 78 96 96 88 78 72 70 69 66 64 60 54 53 52 52 54 58 68 70 67 66
84 88 99 98 97 86 97 100 100 100 100 99 99 100 100 98 94 70 73 80 73 88 97 96 94 90 88 74 78 74 67 63 62 60 56 53 53 54 56 61 65 61 61
76 86 93 99 99 99 98 100 100 100 99 99 99 100 98 100 83 72 87 87 91 98 99 99 98 98 88 89 86 80 65 60 62 60 57 55 54 54 55 53 55 57 58
86 91 99 100 97 96 100 100 100 100 99 99 100 100 100 97 76 87 88 94 95 99 94 98 94 97 92 86 78 71 64 61 64 62 60 59 54 50 50 50 51 50 50
92 95 100 100 100 100 100 98 97 98 100 99 100 100 99 95 90 87 96 95 96 98 98 97 96 92 87 82 78 73 66 60 59 59 59 58 52 51 48 48 51 53 51
94 98 98 96 95 95 94 89 87 84 85 84 86 88 82 86 83 92 88 100 100 99 98 98 89 74 72 74 74 71 76 76 69 65 63 60 56 55 54 57 58 59 50
88 90 90 88 85 83 82 81 78 73 69 67 80 86 79 96 93 79 88 100 99 98 99 86 75 63 61 63 65 72 76 76 82 82 83 77 68 66 64 68 65 62 53
83 85 88 87 85 83 82 79 78 80 85 89 91 86 89 90 97 95 95 97 81 87 84 75 70 68 68 68 72 75 84 84 84 88 81 78 78 82 71 74 74 67 70
84 86 88 89 94 95 98 85 87 97 97 94 96 96 95 93 71 72 57 60 86 84 78 74 75 76 76 74 74 75 76 72 77 83 88 98 94 89 80 77 73 73 76
83 87 90 92 95 100 99 98 91 83 68 64 90 88 83 82 85 84 73 83 90 91 92 87 84 84 82 84 89 80 75 72 78 82 98 97 93 97 96 92 91 81 82
91 93 89 91 88 89 89 81 74 70 71 81 56 82 83 84 87 91 90 88 96 98 100 96 93 89 96 98 99 98 95 78 70 90 94 98 89 96 90 86 86 76 83
83 83 84 70 59 63 64 64 61 66 76 82 91 88 89 92 93 95 92 77 68 60 53 60 84 83 91 82 78 87 96 98 89 81 97 97 98 96 94 96 96 91 87
76 66 62 61 60 62 64 68 61 64 68 71 65 73 70 78 82 87 82 55 28 16 15 14 14 14 21 59 75 82 80 86 97 96 95 94 89 89 98 97 94 97 87
69 69 66 61 62 55 50 46 50 62 54 51 64 71 74 85 89 56 18 11 19 22 27 19 20 33 36 59 70 73 86 95 100 97 96 88 94 99 97 95 96 95 94
66 63 60 40 44 45 48 41 28 14 6 6 15 11 21 24 33 15 18 21 21 25 30 50 86 100 100 94 81 78 88 92 96 98 93 92 96 94 96 97 96 95 95
58 50 44 36 37 43 46 46 30 21 11 8 8 10 11 13 18 21 22 22 25 34 58 94 93 89 92 99 98 96 88 98 96 98 99 96 95 99 97 97 95 95 96
54 25 15 25 48 42 37 51 59 61 31 25 26 23 15 15 21 22 24 25 43 86 92 90 97 97 100 100 99 96 90 97 91 94 99 94 99 95 98 95 95 95 95
20 18 47 58 44 29 40 31 57 69 69 87 93 81 57 24 25 25 25 36 96 95 93 92 95 100 100 100 100 100 92 89 95 93 95 92 93 95 97 96 95 95 97
35 30 16 12 8 8 10 16 34 58 79 87 89 86 93 38 29 58 97 100 100 100 99 99 100 100 100 100 100 100 97 96 97 97 95 92 91 94 96 95 96 96 95
15 11 9 10 12 15 19 34 66 76 86 91 94 98 92 31 38 100 100 100 100 100 100 100 100 100 100 100 100 100 99 93 96 94 97 90 92 94 94 97 96 95 96
19 13 11 13 19 19 23 43 53 66 89 97 98 100 72 42 87 100 100 100 100 100 100 100 100 100 100 100 100 100 100 95 95 95 96 97 98 94 92 96 96 95 96
14 14 16 19 22 26 24 32 50 86 99 100 100 100 100 100 100 100 100 100 100 100 100 100 100 100 100 100 100 100 100 100 96 95 95 95 97 98 92 96 95 95 95
16 18 22 32 27 28 55 80 94 100 100 100 100 100 100 100 100 100 100 100 100 100 100 100 100 100 100 100 100 100 100 100 100 98 95 95 95 96 97 96 95 95 95
19 21 26 35 53 39 94 100 100 100 100 100 100 100 100 100 100 100 100 100 100 100 100 100 100 100 100 100 100 93 89 94 98 97 96 95 94 95 96 96 96 95 95
25 29 38 56 91 100 100 100 100 100 100 100 100 100 100 100 100 100 100 100 100 100 100 86 93 100 100 100 97 95 97 97 94 97 96 96 95 96 95 96 96 95 94
50 63 72 100 100 100 100 100 100 100 100 100 100 100 100 100 100 100 100 100 100 99 81 100 98 100 100 100 100 100 100 100 99 99 98 95 96 96 97 96 96 95 95

GFSGL_850_rhum_048.txt.gz
RH
69 72 75 78 77 81 77 82 86 99 100 99 99 99 99 96 99 96 90 92 80 78 73 88 96 98 87 88 81 76 74 71 72 68 67 61 57 55 54 55 56 56 59
70 75 75 83 91 96 96 87 99 99 99 99 98 99 96 96 98 96 94 93 83 76 77 97 98 88 89 96 91 84 81 83 74 68 66 62 58 56 53 53 54 55 57
72 82 93 94 96 99 100 100 98 100 100 99 98 99 100 100 100 99 97 85 76 81 98 99 99 100 88 88 91 96 96 89 78 72 63 61 64 60 56 56 55 55 51
71 77 85 88 98 98 99 98 100 100 100 99 100 100 98 99 99 98 92 82 81 95 99 98 100 96 91 88 88 90 89 89 85 80 77 64 67 64 61 56 52 53 50
80 87 99 98 98 99 98 99 99 99 98 99 100 100 99 99 99 94 87 90 95 97 96 98 95 94 90 90 86 84 86 81 76 80 76 67 66 65 65 57 54 53 53
90 94 95 98 98 98 99 99 100 95 98 95 95 97 100 97 96 96 91 99 97 100 100 100 98 85 81 76 71 69 68 65 70 74 65 76 76 71 68 64 66 67 67
95 97 98 98 96 96 97 94 90 83 79 75 72 78 84 84 85 92 85 87 94 97 99 78 74 79 74 69 66 66 68 69 74 76 85 80 73 72 71 71 90 78 66
88 88 86 86 85 84 84 81 76 74 74 76 83 92 97 98 96 98 98 94 76 46 61 87 84 77 74 77 78 76 73 72 73 80 88 86 80 78 87 86 88 81 92
78 78 82 84 86 88 84 79 78 80 97 98 99 94 96 98 93 86 78 67 54 55 57 54 60 72 76 83 88 91 88 84 79 77 64 62 80 91 99 94 89 90 90
82 83 87 90 91 95 92 93 93 97 89 72 75 85 86 84 85 80 70 70 69 57 55 47 37 28 28 42 65 86 91 91 93 96 96 86 65 74 93 98 98 92 96
84 87 90 93 89 88 80 70 74 76 80 74 68 61 77 84 78 70 69 70 59 38 24 15 10 9 8 10 18 47 65 84 76 70 68 89 97 81 83 88 96 86 82
82 80 80 79 80 79 71 67 62 64 69 67 71 77 88 92 94 74 53 31 32 25 10 6 6 6 8 11 33 31 23 44 64 75 66 92 82 97 98 100 95 90 91
80 78 66 58 60 62 66 64 68 72 75 70 60 46 66 72 66 32 25 27 10 6 6 6 8 9 22 62 72 85 92 89 92 100 100 100 98 96 97 97 97 98 96
68 64 63 61 57 59 58 50 54 50 45 39 26 32 42 41 25 15 10 6 6 7 8 9 14 40 82 80 88 85 98 99 99 95 82 89 97 98 96 93 95 100 98
69 67 65 60 49 44 46 42 31 26 16 8 8 10 8 11 8 8 8 8 10 12 16 22 53 97 78 80 78 90 97 86 82 98 100 99 97 93 95 96 96 98 96
64 64 50 37 42 46 40 36 28 24 16 11 8 10 9 8 10 12 12 13 16 27 38 70 88 85 83 86 94 98 98 97 82 78 97 87 80 94 100 100 100 98 96
59 54 51 45 42 36 42 50 51 53 51 28 18 18 16 10 11 16 18 19 33 81 92 91 91 88 94 94 99 100 100 100 95 97 95 96 95 94 97 95 99 97 96
50 47 39 33 30 25 23 27 35 53 56 59 66 72 64 43 24 24 26 40 66 65 84 94 96 94 94 100 98 100 100 100 92 92 96 97 95 98 96 96 97 97 96
33 26 25 22 15 11 9 10 16 24 37 52 67 90 92 87 60 32 98 97 97 95 94 93 93 98 100 100 100 100 100 100 100 96 95 96 97 96 96 96 98 97 98
26 40 49 40 18 11 13 16 26 36 43 53 74 91 86 64 47 40 98 96 94 96 97 94 95 100 100 100 100 100 100 100 92 100 96 95 97 98 97 97 97 98 97
95 90 49 16 15 17 19 24 33 37 43 60 76 95 94 81 63 94 100 96 99 100 96 100 100 100 100 100 100 100 100 100 94 100 98 96 95 97 98 100 95 98 96
80 38 38 33 20 20 20 24 26 38 60 77 94 95 97 95 100 100 97 100 98 99 100 100 100 100 100 100 97 95 100 100 100 99 87 84 95 95 96 95 95 97 96
80 44 24 26 25 24 28 49 59 70 90 82 87 98 100 100 100 100 100 99 100 100 100 100 100 99 85 84 98 100 100 100 100 99 97 88 81 95 95 93 94 95 96
28 22 25 30 38 44 46 72 66 90 99 100 100 100 100 100 100 100 100 100 100 100 98 100 89 82 83 100 100 98 100 100 100 100 100 97 92 88 95 94 92 93 97
53 73 72 63 66 85 96 100 100 100 100 100 100 100 100 100 100 100 100 100 100 96 97 82 79 87 93 97 100 100 100 100 100 100 100 100 96 93 93 95 94 95 96
94 92 90 84 94 100 100 100 100 100 100 100 100 100 100 100 100 100 100 99 100 91 81 76 85 94 96 96 99 100 100 100 100 100 100 100 97 94 96 96 95 95 97

GFSGL_850_rhum_051.txt.gz
RH
64 65 71 72 74 73 64 64 69 79 74 69 77 88 98 97 99 99 100 100 100 93 96 76 79 82 95 93 92 98 92 80 77 75 74 73 70 66 61 57 56 56 55
66 70 71 72 72 81 81 76 74 80 81 80 93 96 99 100 100 100 99 100 95 98 93 91 81 97 98 88 84 85 85 88 88 85 86 78 77 69 67 60 56 58 55
57 74 73 79 75 86 86 91 91 96 92 97 99 99 98 95 94 94 100 99 98 99 96 82 97 98 88 85 84 86 86 84 93 94 91 87 83 81 70 78 64 62 65
71 69 64 64 80 82 92 98 98 100 99 99 98 99 99 100 100 100 100 100 100 88 84 96 99 92 88 91 90 89 90 87 88 84 80 79 82 84 79 75 89 73 75
66 71 73 74 84 87 93 96 100 100 99 100 100 100 100 100 100 100 99 98 87 88 93 98 92 92 96 88 90 85 80 79 77 76 73 71 68 67 71 75 77 80 74
60 65 73 85 100 97 94 97 100 99 100 100 99 100 100 100 100 99 94 94 98 98 91 99 98 92 68 64 74 79 76 73 73 74 75 80 78 75 77 86 87 84 94
78 84 96 99 98 95 98 99 100 100 100 100 99 99 99 98 94 92 94 92 86 88 97 99 78 68 90 87 78 73 74 77 78 80 81 80 80 78 83 84 88 99 97
95 100 98 95 99 100 100 100 95 89 85 79 77 82 86 86 92 91 92 95 98 94 69 55 72 79 76 66 60 60 64 67 75 84 94 92 94 86 92 86 78 84 98
95 97 96 94 94 98 98 92 84 77 74 76 84 92 98 98 99 98 88 82 65 44 46 57 60 51 42 24 14 8 6 6 6 9 18 29 50 93 97 99 97 96 96
87 87 86 85 85 84 85 83 82 86 93 94 99 96 94 82 76 75 69 65 64 61 58 34 16 10 5 5 6 6 7 14 20 12 10 10 11 13 20 37 97 100 100
78 78 83 82 83 84 85 86 83 87 86 82 79 82 82 80 72 77 76 76 71 51 19 8 4 4 5 6 11 40 73 77 76 83 72 70 54 70 65 94 98 98 99
80 82 85 86 87 83 74 70 74 78 76 82 83 77 80 75 67 74 74 62 28 14 6 4 4 4 6 12 26 46 77 95 96 95 89 88 95 86 82 89 97 97 92
82 84 88 90 81 70 69 73 76 73 68 60 67 80 83 75 67 61 44 24 15 6 5 5 7 8 14 23 39 49 51 66 88 88 92 93 100 100 98 94 98 98 96
85 87 81 72 73 69 64 61 62 68 73 77 79 65 59 51 44 35 22 10 6 6 6 7 11 20 28 33 34 33 36 51 77 80 77 73 70 98 100 99 97 94 98
83 72 61 60 63 67 67 63 66 64 54 44 34 24 24 21 14 8 6 6 6 8 10 16 21 23 25 34 46 54 42 37 55 69 86 90 73 96 97 98 100 100 100
68 64 63 62 58 54 51 45 45 36 23 14 8 7 6 8 9 8 9 11 12 16 21 40 58 69 73 75 69 60 62 50 50 69 85 94 98 91 97 97 94 95 95
68 67 60 51 47 46 44 39 32 38 38 32 22 19 17 18 17 17 15 14 17 22 48 63 68 81 84 78 72 72 69 66 64 68 84 95 96 96 96 97 97 97 99
66 64 54 48 48 47 48 45 46 50 39 33 36 47 42 46 41 51 32 29 46 45 53 56 63 72 71 70 74 77 75 70 67 66 76 92 96 96 95 97 96 95 98
60 56 51 48 42 32 29 32 34 26 33 41 60 69 66 78 76 73 51 43 68 77 77 77 84 79 74 80 83 83 74 76 82 78 73 91 94 95 95 95 97 97 96
77 51 56 68 85 93 96 68 28 52 53 40 57 78 88 91 86 58 43 65 89 90 92 96 94 85 88 82 82 76 72 69 74 82 80 76 80 96 95 96 96 98 100
89 96 96 96 95 94 95 95 90 34 33 42 56 65 74 78 78 68 78 96 96 92 95 93 88 92 87 79 77 80 76 75 82 87 85 81 78 79 96 96 97 99 99
96 96 96 95 95 94 63 37 34 33 39 52 65 80 96 96 92 95 99 98 95 95 94 94 94 85 80 83 82 79 86 90 88 96 95 90 84 78 87 96 95 96 96
95 95 95 94 82 48 47 48 51 63 65 78 87 81 82 94 99 100 100 98 98 96 97 93 84 73 76 73 78 91 100 99 100 100 98 95 92 89 84 85 93 94 96
95 95 94 90 88 90 92 87 87 85 88 99 100 100 100 100 100 100 100 100 100 100 95 86 76 79 75 78 90 98 100 100 100 100 100 98 93 90 90 87 89 95 96
95 96 96 96 96 96 97 98 100 100 100 100 100 100 100 100 100 100 100 100 100 87 82 74 74 78 85 91 98 100 100 100 100 100 100 100 96 91 90 91 92 94 96
96 96 97 96 98 100 100 99 99 100 100 100 100 100 100 100 100 100 100 96 87 81 80 67 74 86 93 97 98 98 96 97 99 100 100 100 98 93 93 94 93 96 95

GFSGL_850_rhum_054.txt.gz
RH
72 66 66 70 73 76 76 73 71 77 82 84 74 78 91 81 82 93 100 100 100 100 100 100 99 99 92 88 91 95 91 98 99 91 88 81 78 79 76 74 72 66 63
59 38 44 74 83 83 89 87 82 66 85 86 82 89 90 93 99 99 100 100 99 99 99 99 97 94 93 99 89 84 83 83 86 89 89 81 76 78 76 84 82 80 79
57 59 55 78 88 94 72 78 83 77 73 90 86 91 91 95 94 95 99 100 100 99 99 98 99 95 100 99 91 89 87 83 83 84 80 81 83 82 73 75 75 78 83
63 56 61 56 83 74 72 63 88 92 93 98 100 98 94 92 92 95 100 100 100 99 99 99 92 98 100 97 91 89 87 87 84 82 77 77 78 75 77 76 74 72 72
65 60 64 58 68 81 78 71 83 100 100 99 100 95 94 97 100 100 100 100 98 100 98 87 92 96 96 100 99 89 84 76 75 76 76 76 74 75 76 76 79 78 77
55 61 60 63 71 69 66 84 100 95 95 97 100 100 100 100 100 100 99 100 99 95 87 94 98 92 99 98 72 73 74 76 79 82 86 87 84 88 90 92 93 90 85
65 63 66 70 76 76 81 95 96 99 97 97 100 100 100 100 100 100 100 98 91 93 98 97 95 99 99 65 55 59 66 72 76 80 81 80 80 81 91 96 99 100 93
56 64 68 78 87 99 98 99 97 100 99 100 99 99 99 100 100 97 95 92 91 91 93 96 96 84 53 55 48 43 24 10 6 4 5 5 7 7 10 14 32 55 78
78 94 100 98 100 100 99 99 100 98 100 100 99 94 88 85 87 88 90 98 93 91 88 74 56 59 61 46 18 6 4 3 6 13 28 42 52 52 58 49 51 100 94
95 100 100 100 100 98 100 96 92 89 86 79 77 83 90 91 98 99 99 88 86 75 67 71 73 49 14 5 4 4 5 8 12 16 29 38 60 58 66 98 99 100 99
90 94 96 98 97 94 91 89 83 79 78 84 90 99 100 100 99 97 86 82 80 76 74 57 22 6 4 4 4 6 16 12 13 12 12 15 39 65 68 78 100 100 100
91 92 92 89 86 84 82 82 82 82 87 97 100 97 98 88 84 80 85 86 82 67 29 12 5 5 5 5 8 16 15 10 12 12 13 19 30 46 68 68 82 99 97
87 81 76 80 83 83 82 86 95 99 97 96 92 80 80 83 82 85 87 80 62 34 11 6 6 6 8 14 23 21 22 19 18 18 23 38 62 68 62 61 78 92 99
75 77 84 87 93 97 93 89 89 86 88 84 85 82 76 77 80 74 67 61 30 9 7 8 9 11 17 25 30 28 26 27 27 30 33 54 71 82 78 90 98 100 100
83 90 96 99 96 85 83 88 82 86 82 75 79 81 80 72 66 61 46 15 8 8 8 11 18 24 26 30 32 34 31 28 31 37 36 41 68 84 82 88 90 98 93
88 95 93 87 82 74 69 73 78 78 78 75 73 71 63 53 40 18 10 10 10 10 12 19 28 35 39 41 39 36 33 34 38 45 49 48 67 86 85 85 94 99 95
89 79 66 68 70 69 68 66 65 57 44 31 23 17 15 16 22 24 21 21 17 17 25 33 38 42 44 44 42 41 44 44 51 55 54 56 60 81 90 87 95 96 97
76 67 63 59 54 53 50 47 44 40 40 49 66 81 58 40 45 44 38 44 38 32 34 40 47 55 60 57 52 53 50 47 49 50 50 60 62 73 86 91 94 97 96
66 61 57 63 70 77 88 89 89 89 95 95 94 91 95 94 70 68 78 73 49 54 63 67 68 73 74 66 62 58 53 55 59 56 53 62 68 70 72 94 95 96 100
91 95 96 96 94 93 95 95 95 96 95 95 96 96 93 93 96 95 81 60 58 73 84 84 82 83 76 67 62 63 67 65 58 59 65 74 75 78 73 87 96 95 97
96 96 96 96 96 96 96 95 95 96 96 95 96 95 96 96 92 86 86 77 83 88 88 89 90 88 83 71 66 69 66 64 66 75 81 84 85 80 79 78 94 96 96
96 96 96 96 96 96 96 95 95 95 95 96 96 96 96 96 96 97 98 100 100 99 98 98 98 97 86 72 73 73 69 74 83 91 92 92 90 86 88 85 85 96 96
95 95 95 95 95 95 95 95 96 96 96 96 96 97 97 97 97 99 100 100 100 100 100 99 98 88 71 70 72 76 88 94 99 100 100 94 93 91 93 90 89 85 95
96 96 95 95 95 96 96 96 96 96 97 97 98 98 100 100 100 100 100 100 100 100 100 98 91 78 70 71 76 88 98 100 100 99 100 100 98 96 97 94 92 92 90
95 95 96 96 96 96 97 97 98 99 100 100 100 100 100 100 100 100 100 100 100 99 97 89 77 71 63 74 89 98 100 100 99 100 100 100 100 98 98 97 95 94 92
95 93 90 87 90 94 93 94 96 98 99 98 100 100 99 99 100 99 98 97 94 90 86 80 70 66 71 89 99 99 100 100 98 100 100 100 100 98 98 99 97 98 94

GFSGL_850_rhum_057.txt.gz
RH
45 46 45 44 39 46 54 51 52 63 74 83 84 86 80 80 84 83 82 88 94 99 94 100 100 100 99 100 98 94 94 96 98 92 87 87 85 82 79 76 77 79 74
56 55 52 57 56 58 62 57 60 61 76 89 87 74 68 78 99 99 94 92 99 99 98 100 99 100 100 99 97 98 100 90 85 88 85 82 82 78 76 77 75 76 70
61 62 64 63 78 69 68 72 77 68 59 63 99 74 78 78 97 98 100 100 99 99 100 100 100 99 96 99 98 98 96 88 82 90 91 86 83 75 60 55 58 58 64
61 64 64 67 67 72 71 71 83 81 81 66 73 87 84 91 96 98 100 100 100 100 100 99 96 100 100 100 99 98 94 73 70 75 68 64 61 49 58 62 62 62 67
71 77 70 67 69 75 78 75 77 79 72 89 98 97 99 99 99 100 97 100 100 100 100 99 100 100 100 98 100 93 81 68 59 60 56 51 38 37 52 67 80 74 63
55 63 75 76 72 75 71 71 85 89 99 95 80 99 99 96 98 100 100 100 100 100 97 99 100 100 100 98 94 98 86 62 61 56 46 42 38 33 22 10 10 19 34
43 56 66 74 78 82 76 80 87 78 100 99 95 96 98 99 100 100 100 100 100 100 100 100 99 100 100 98 98 94 72 68 62 49 29 10 5 6 12 22 33 47 46
48 56 62 71 79 79 73 77 84 100 100 98 100 95 100 100 100 100 100 99 100 100 97 100 100 100 100 93 96 65 57 40 16 6 5 7 14 23 39 54 62 60 58
52 59 61 65 72 82 92 100 100 99 100 100 99 99 100 100 100 100 100 100 98 97 99 100 100 100 97 74 56 45 16 5 4 4 6 6 8 13 33 68 71 92 88
58 57 57 63 92 100 99 98 100 100 99 100 100 100 100 100 100 100 98 97 95 94 95 93 90 72 66 62 29 7 4 4 5 5 5 5 7 9 16 34 72 83 99
70 73 77 90 98 100 100 100 100 100 100 100 100 100 99 96 93 97 98 99 100 99 94 83 78 72 42 12 5 5 7 7 9 8 7 7 8 10 16 30 52 74 86
88 92 99 100 100 100 100 99 100 100 100 96 91 89 97 99 99 99 100 100 99 92 87 81 54 20 6 5 6 10 12 14 10 11 10 10 11 12 15 25 45 62 80
99 100 100 100 100 100 100 100 100 94 85 87 99 100 100 99 100 100 100 98 94 89 74 41 13 6 6 11 18 18 15 16 12 11 11 12 15 16 18 26 50 73 100
96 99 99 99 98 97 95 92 91 98 99 100 99 100 100 100 97 95 95 92 81 59 28 9 8 9 11 17 22 25 22 17 18 17 16 17 19 20 21 46 65 70 93
92 92 92 94 97 100 100 100 100 100 100 99 99 94 85 86 88 87 79 68 47 17 12 10 12 18 26 33 32 28 24 22 21 21 20 20 20 25 27 39 73 74 92
86 89 92 98 100 100 100 98 99 100 100 99 98 96 93 90 82 70 71 34 76 29 14 18 25 35 40 40 37 33 32 29 29 28 25 26 27 32 34 35 70 88 87
84 91 98 100 100 96 90 88 86 88 87 85 91 94 83 64 44 30 48 48 27 28 30 40 44 46 49 52 50 47 47 44 38 37 37 34 35 40 47 45 60 90 86
97 100 100 99 93 86 86 90 93 96 95 89 74 70 61 57 77 91 87 94 95 86 57 56 67 87 91 68 62 62 57 50 48 48 47 46 45 43 48 56 60 88 95
81 89 98 97 96 96 96 96 96 96 97 97 96 96 96 95 95 95 95 95 96 96 95 96 96 96 87 72 72 68 60 54 54 54 54 54 54 56 63 72 70 73 95
98 97 97 97 97 96 96 96 96 96 96 96 95 95 96 95 95 95 95 95 95 96 96 96 96 95 88 85 80 69 53 51 52 53 56 60 65 70 81 81 80 76 91
96 96 97 97 97 96 96 96 96 96 96 96 96 96 96 96 96 96 96 96 96 97 97 97 97 94 92 87 78 62 51 52 60 66 71 76 84 84 85 87 88 88 91
96 96 96 96 96 95 95 95 95 95 95 95 95 96 96 96 96 97 97 97 97 98 99 100 99 97 95 91 76 62 62 65 70 80 85 88 90 89 90 90 90 91 89
95 96 95 95 95 96 95 95 95 95 95 96 96 97 97 97 97 98 98 99 100 100 100 100 100 100 98 89 76 70 69 77 88 92 95 94 93 93 94 94 96 95 94
94 94 94 94 93 93 94 95 96 96 97 97 97 97 98 100 100 99 99 98 99 99 98 96 96 97 90 79 71 65 79 92 98 98 100 100 98 97 98 98 98 99 98
94 94 94 94 94 94 94 91 89 88 89 89 90 92 94 94 93 93 95 94 94 93 95 99 100 94 84 73 65 71 89 96 100 100 100 100 100 100 100 100 100 100 99
57 54 56 60 65 71 78 84 89 92 94 96 96 95 96 96 97 96 96 96 96 93 91 87 79 71 69 68 72 85 98 100 100 100 100 100 100 100 100 100 100 100 97

GFSGL_850_rhum_060.txt.gz
RH
37 38 39 37 37 41 43 44 44 47 49 53 60 70 81 79 75 83 89 85 87 84 85 87 93 90 99 99 100 99 99 98 96 94 97 94 83 76 66 66 72 71 66
36 35 37 41 39 36 37 40 46 50 54 57 60 64 80 82 68 72 80 79 88 92 91 90 99 98 99 96 100 100 98 96 92 96 93 85 82 72 64 62 55 48 52
50 47 44 39 38 42 47 45 47 50 53 56 72 82 89 77 74 77 80 93 96 97 89 100 99 99 100 100 98 99 98 97 96 96 92 78 58 46 42 39 34 24 19
50 52 52 51 50 46 49 53 55 58 60 70 69 66 81 82 74 82 85 99 100 96 100 100 99 99 100 98 99 99 98 100 100 98 69 58 49 34 30 22 10 4 3
48 54 53 52 54 58 61 62 65 68 72 79 83 76 82 94 80 94 96 100 96 95 100 100 100 100 100 97 100 99 100 99 100 77 58 45 35 26 16 5 3 3 4
35 35 40 59 63 61 61 66 71 70 78 82 91 99 100 97 100 100 100 99 96 99 100 100 100 100 98 99 100 100 100 99 84 73 50 43 29 10 4 4 6 8 12
31 34 42 51 65 70 73 74 81 85 89 89 100 100 99 100 100 100 98 100 100 100 100 100 99 100 100 100 100 100 100 94 82 58 48 22 5 5 6 6 6 11 15
32 35 39 48 61 75 81 85 94 99 100 99 100 98 100 100 100 99 100 100 100 100 100 100 100 100 100 100 100 100 92 85 64 44 11 5 6 7 7 8 8 10 12
38 42 44 48 61 70 85 92 100 99 100 100 97 99 99 100 100 100 100 100 100 100 100 100 100 100 100 100 99 99 76 57 25 6 5 7 7 6 7 9 10 19 13
46 48 49 60 73 80 97 100 97 100 100 100 100 100 100 100 100 100 100 100 100 100 100 100 100 100 100 98 78 62 40 10 5 6 7 6 5 6 7 9 13 22 40
52 58 69 83 99 100 98 100 100 100 100 100 100 100 100 100 100 100 100 100 100 100 100 100 100 97 82 71 52 16 6 5 6 6 6 6 6 6 7 10 16 29 44
68 77 88 89 96 99 100 99 100 100 100 100 100 100 100 100 100 100 100 100 100 100 99 100 92 82 67 28 8 6 6 8 10 10 8 8 9 9 10 12 15 23 52
87 92 95 93 100 100 100 100 100 100 100 100 100 100 100 100 100 100 100 100 100 99 98 91 79 49 16 7 10 16 14 15 14 13 11 12 12 12 12 14 17 21 28
94 96 97 100 100 100 100 100 100 100 100 100 98 96 98 100 100 100 100 100 100 96 89 64 24 10 14 27 31 21 22 20 18 14 15 15 14 14 14 16 19 21 20
93 94 98 100 100 100 99 99 98 94 93 94 95 99 99 100 100 100 100 98 93 76 40 25 44 46 62 31 28 31 29 20 23 34 26 18 16 16 16 17 22 27 33
96 98 100 99 98 96 96 96 98 99 100 99 100 100 100 99 98 97 97 96 90 46 72 78 85 41 30 35 60 38 37 60 54 31 26 24 24 26 25 24 26 36 38
93 91 93 96 99 99 100 100 100 100 99 98 98 98 97 98 97 97 95 73 82 92 95 89 70 79 94 78 70 92 88 72 62 46 34 36 39 39 36 34 35 47 46
99 98 100 100 100 100 100 99 98 98 98 97 97 96 96 96 95 95 95 94 95 95 95 95 95 95 96 95 95 94 94 95 73 47 44 47 47 48 45 48 49 53 60
100 100 100 99 98 97 97 97 97 96 96 96 96 95 95 95 95 95 95 95 95 95 95 95 96 96 96 96 97 97 96 76 57 49 52 55 57 60 60 65 67 72 73
98 98 98 97 96 96 96 96 96 96 96 96 96 95 95 95 95 95 95 95 96 96 96 96 97 97 97 97 97 94 80 74 61 61 63 64 70 76 76 80 80 81 80
96 96 96 96 96 96 96 96 95 95 95 95 96 96 96 96 96 95 96 96 96 97 97 98 98 98 98 98 98 95 91 78 68 70 71 78 84 84 86 89 91 92 94
96 95 96 95 95 95 95 95 95 95 96 96 96 96 96 96 96 96 97 98 98 98 99 100 100 100 100 100 100 98 90 73 68 77 85 89 90 90 93 93 95 96 98
95 95 95 95 95 95 94 95 94 95 95 96 96 96 96 96 97 97 98 98 98 97 97 97 96 94 94 97 99 96 84 75 72 86 93 95 96 97 100 98 100 99 100
94 94 94 93 93 93 93 93 94 94 94 92 91 90 87 85 85 86 87 87 88 90 88 86 86 87 90 90 88 83 78 75 85 97 100 100 99 100 100 100 100 100 100
88 82 74 67 63 62 63 67 71 75 78 80 82 83 84 87 90 90 90 88 87 87 87 86 84 81 77 73 72 73 75 78 95 100 100 100 100 100 100 100 100 100 100
38 40 43 47 49 52 56 59 62 66 69 72 73 74 76 79 82 85 84 84 81 78 74 72 72 73 74 73 73 72 74 89 100 100 100 100 100 100 100 100 100 100 98

GFSGL_850_rhum_066.txt.gz
RH
90 95 96 94 96 96 94 92 86 81 79 80 79 80 81 80 82 86 88 88 93 76 62 73 80 85 98 99 97 99 100 100 100 97 95 85 90 90 87 85 89 84 93
78 86 90 96 95 91 83 78 83 74 80 82 76 80 82 80 80 83 79 86 62 58 70 82 86 83 96 87 90 84 97 99 100 100 97 93 96 96 90 92 89 90 76
76 76 80 75 78 66 62 66 81 88 89 90 91 89 81 76 74 74 75 65 57 56 81 81 84 96 96 96 84 89 99 100 100 100 100 99 99 93 87 89 88 64 59
70 76 77 58 46 58 62 63 67 64 66 61 72 84 88 88 88 82 69 50 49 61 68 81 93 94 98 100 90 97 100 100 100 98 100 98 95 93 94 92 70 64 47
78 73 49 43 45 52 54 50 57 64 68 78 79 66 54 55 55 55 58 53 50 52 68 81 91 92 97 100 100 100 100 100 100 100 100 99 95 98 98 76 59 49 47
52 40 59 66 60 48 49 50 51 52 53 58 65 73 69 66 46 46 51 72 71 85 76 83 95 98 100 100 100 100 100 100 99 100 100 99 99 99 83 62 56 52 46
28 41 54 70 72 68 58 61 60 61 72 70 69 77 75 69 53 54 66 87 98 99 99 99 100 99 100 100 99 100 100 100 100 100 100 99 97 73 58 56 42 62 57
27 42 47 52 53 73 79 77 81 86 85 87 97 99 99 98 86 90 97 100 100 99 99 100 100 98 97 100 100 100 100 100 100 100 100 98 87 54 25 12 27 18 10
30 30 44 58 58 57 58 78 92 97 99 100 99 99 99 100 100 100 100 100 100 100 100 100 100 100 100 100 100 100 100 99 100 100 99 87 50 17 6 6 6 48 65
58 63 68 71 68 68 74 75 78 88 93 95 99 100 100 100 100 100 100 100 100 100 100 100 100 100 100 100 99 100 100 99 100 96 79 27 8 6 6 6 14 31 62
64 62 78 79 80 92 93 82 84 94 98 99 100 99 99 99 100 100 100 100 100 100 100 100 100 100 100 100 99 99 99 98 87 40 33 25 9 10 14 29 50 20 50
58 59 62 73 76 80 89 97 99 100 100 99 100 100 100 100 100 100 100 100 100 100 100 100 100 99 98 99 99 97 91 72 51 32 22 29 30 49 81 57 23 62 84
99 96 93 94 100 100 100 99 99 99 100 100 100 100 100 100 100 100 100 100 100 100 100 100 99 99 98 99 92 86 87 57 40 66 71 88 90 56 38 58 90 92 87
99 98 100 100 100 100 100 100 100 100 100 100 100 100 100 100 100 99 98 100 99 99 100 98 99 97 95 95 96 89 66 82 95 94 86 83 85 93 94 94 91 86 67
100 100 100 100 100 100 100 99 100 100 100 100 100 100 100 100 100 100 100 99 98 98 97 96 96 96 94 77 74 91 96 91 79 88 95 96 98 100 100 100 96 97 93
100 100 100 100 99 100 99 99 100 100 100 100 100 100 100 100 100 98 97 97 97 97 96 96 96 96 99 100 100 100 100 97 100 98 100 100 100 100 100 100 100 98 93
99 99 100 100 100 100 100 98 98 100 100 99 99 98 98 97 97 97 96 95 95 96 96 96 96 96 97 98 100 100 100 100 94 100 100 100 100 100 100 100 100 97 94
99 99 98 99 99 99 100 98 97 97 96 95 96 96 96 96 96 96 95 95 95 95 96 100 100 100 100 100 100 100 100 100 100 100 100 100 100 100 100 100 100 100 97
99 98 99 97 97 96 96 96 96 96 96 95 96 96 95 95 95 95 95 95 100 100 100 100 100 100 100 100 100 100 100 100 100 100 100 100 100 100 100 100 100 100 100
97 97 97 97 97 95 96 96 96 96 96 96 96 95 96 96 96 98 99 100 100 100 100 100 100 100 100 100 100 100 100 100 100 100 100 100 100 100 100 100 100 100 100
97 97 97 96 95 96 96 96 96 96 96 96 96 96 96 96 100 100 100 100 100 100 100 100 100 100 100 100 100 100 100 100 100 100 100 100 100 100 100 100 100 100 100
96 97 97 96 95 95 95 96 96 96 96 95 95 95 94 96 100 100 100 98 95 96 100 100 100 100 100 100 100 100 100 100 100 100 100 100 100 100 100 100 100 100 100
93 94 95 98 99 96 96 98 99 100 100 100 100 100 100 100 100 100 96 85 94 84 58 63 64 75 95 86 87 100 100 100 100 100 100 100 100 100 100 100 100 100 100
86 86 86 86 93 100 100 99 83 77 100 100 100 100 100 100 100 82 64 60 56 65 60 54 54 54 55 58 63 74 96 96 86 85 100 100 100 100 100 100 100 100 100
28 33 35 42 57 75 71 74 83 81 81 100 100 100 100 100 100 100 87 58 50 52 54 53 54 56 59 60 62 63 64 65 66 69 74 92 100 100 100 100 100 100 100
23 25 35 44 40 58 70 64 60 67 72 81 88 83 79 87 90 59 57 55 52 55 57 60 59 58 60 61 63 65 68 67 68 71 83 94 100 100 100 100 100 100 100

GFSGL_850_rhum_072.txt.gz
RH
86 87 96 99 98 98 94 90 89 96 93 93 72 61 54 54 55 67 67 65 70 73 76 78 81 64 64 70 72 77 82 76 94 96 85 85 99 92 79 80 81 87 85
77 80 82 90 99 98 97 92 91 86 86 86 84 69 60 61 56 57 62 64 67 67 70 77 80 75 82 85 81 81 81 70 78 95 85 90 99 98 100 100 93 93 87
73 78 83 81 78 89 89 89 90 92 89 84 75 66 59 58 57 58 66 65 64 75 75 78 80 82 88 91 90 80 73 75 80 80 79 99 99 92 97 98 97 93 92
69 72 77 80 65 70 84 90 92 93 97 93 87 81 71 54 54 69 72 68 69 72 77 81 82 84 87 87 88 84 83 86 78 94 99 100 99 99 100 98 100 100 100
67 67 72 76 81 84 83 86 92 88 92 90 91 92 89 85 86 86 87 88 87 86 83 85 85 85 86 88 85 86 88 95 98 100 100 99 99 99 99 98 100 100 100
63 64 66 70 77 83 87 90 94 94 92 94 92 90 91 89 86 84 82 83 84 85 84 85 86 88 90 90 87 87 92 92 93 100 100 100 100 100 100 100 100 100 100
61 64 67 68 69 76 85 88 84 86 88 85 87 94 91 88 84 84 85 88 88 89 90 90 91 91 92 92 93 94 95 100 100 100 100 100 100 100 100 100 100 99 98
53 60 68 72 72 72 77 84 86 92 92 91 89 87 91 88 91 92 93 94 93 93 92 93 94 98 96 100 99 100 100 100 100 100 100 100 100 100 100 99 100 98 99
50 56 59 66 71 72 74 75 82 88 93 95 98 99 99 94 98 95 96 97 98 98 96 94 96 99 100 100 100 100 100 100 100 100 100 99 100 99 100 100 98 97 80
44 40 51 61 62 66 70 73 76 82 87 92 92 96 98 99 98 99 99 97 95 95 96 96 99 100 100 100 100 100 100 100 100 100 100 99 98 97 98 97 88 83 94
78 56 56 61 68 68 67 68 74 77 83 89 91 90 90 94 94 98 100 100 100 100 100 100 100 100 100 100 100 100 100 100 100 98 99 98 98 97 96 96 96 95 84
99 89 71 76 72 74 76 74 74 77 78 89 91 92 91 94 96 99 100 100 98 100 100 100 100 100 100 100 100 100 100 100 98 98 98 97 96 96 95 93 92 85 74
98 98 100 99 99 100 99 96 96 92 97 94 98 100 100 100 100 100 100 100 100 98 100 100 100 98 99 100 100 99 98 99 98 97 96 96 95 95 96 97 95 90 87
78 85 81 92 99 99 99 100 100 100 100 100 100 100 100 100 98 96 100 100 100 100 99 100 100 100 99 97 97 98 96 96 96 95 95 95 95 94 92 90 90 90 86
92 84 78 82 87 96 98 98 99 100 100 100 100 100 100 100 100 99 99 99 99 98 98 97 97 97 96 95 96 96 96 95 95 95 95 94 93 89 89 92 91 94 93
100 97 98 96 92 92 90 86 89 96 100 100 99 97 94 99 97 97 97 97 97 96 97 96 96 95 96 96 95 95 95 95 95 92 89 87 86 87 88 88 90 93 94
100 100 100 99 99 100 100 94 94 96 95 96 98 96 96 97 97 97 96 96 96 96 96 96 96 95 95 95 95 96 93 89 88 88 85 86 87 87 94 94 92 95 98
100 100 98 98 98 98 98 99 98 97 96 95 96 96 97 95 95 95 95 96 95 95 95 95 94 95 94 94 94 95 95 95 90 84 83 93 96 95 94 91 92 96 97
97 96 95 94 93 94 94 94 94 94 95 95 95 95 95 94 95 95 95 94 94 94 94 94 94 94 95 95 95 94 94 95 96 98 96 97 94 90 92 94 93 89 94
97 98 97 96 97 96 96 96 96 96 95 95 95 96 95 96 95 94 95 95 95 96 97 96 93 90 86 86 88 90 94 94 94 92 92 92 95 95 97 94 90 92 90
98 98 97 97 96 96 95 95 95 95 96 96 96 96 96 95 95 96 96 95 90 90 93 97 96 89 80 75 72 74 82 88 95 98 99 99 98 98 98 96 93 90 92
95 96 96 96 97 97 96 96 98 95 95 95 96 97 100 95 92 85 79 67 58 58 62 74 79 76 64 55 56 66 89 100 100 95 89 89 92 97 98 98 98 93 90
94 95 100 100 98 97 96 100 100 100 100 100 100 98 91 84 90 89 80 89 84 68 49 49 56 55 51 49 48 61 79 80 68 61 58 58 69 98 100 100 100 100 95
74 92 99 91 92 98 100 100 98 94 100 100 100 100 100 100 100 89 73 62 64 77 63 59 61 58 49 48 50 53 51 52 56 56 57 58 64 76 91 99 98 94 96
83 92 98 100 100 99 100 100 100 100 100 100 100 100 100 100 100 100 97 72 50 46 52 67 64 57 50 55 50 48 56 60 57 57 57 58 60 68 85 95 99 100 100
85 87 92 98 98 100 100 100 100 100 100 100 100 100 100 100 92 98 81 52 52 51 62 61 58 60 58 65 58 60 60 57 58 55 59 64 70 80 89 100 100 100 100

GFSGL_850_rhum_075.txt.gz
RH
79 97 98 97 97 97 98 90 89 86 69 59 59 66 68 64 61 63 67 61 60 64 66 65 58 61 60 66 69 70 71 70 76 73 70 64 73 65 67 68 72 83 85
75 79 82 99 97 98 96 99 94 91 88 83 78 67 57 53 56 60 62 60 61 61 66 65 61 62 62 67 70 70 73 68 72 77 74 75 72 73 78 84 81 94 95
81 82 83 80 82 99 98 97 99 97 92 88 88 79 78 69 66 57 57 58 57 55 60 60 60 66 67 68 71 72 74 74 81 92 99 100 98 97 99 95 97 97 99
65 77 76 75 74 70 98 99 98 98 93 90 87 84 79 76 79 75 61 55 55 55 54 53 58 68 68 71 74 76 76 81 83 93 99 99 100 97 100 99 99 100 100
58 61 69 74 75 76 76 84 96 100 99 94 92 90 89 86 80 70 64 61 59 61 58 55 60 68 66 64 74 76 84 87 90 100 99 97 99 99 96 99 99 100 100
59 60 60 65 73 77 79 80 78 81 93 98 97 95 94 90 83 83 82 78 70 61 54 56 68 72 72 76 82 85 86 87 91 97 100 100 99 98 99 100 100 100 100
63 60 61 62 63 66 74 79 79 83 87 84 91 99 100 99 95 92 91 92 90 85 81 83 87 89 90 90 89 90 93 97 98 99 100 100 100 99 99 100 100 100 100
75 81 78 75 67 65 67 70 75 81 83 86 88 93 94 92 97 98 99 99 94 94 93 91 88 86 86 88 88 93 96 98 100 100 100 100 100 100 100 100 100 100 100
66 84 88 86 81 77 74 69 68 75 82 83 88 93 94 85 91 93 99 97 94 91 89 87 86 86 87 92 95 96 100 100 100 100 100 100 100 100 99 100 100 100 100
67 67 71 73 83 90 84 81 80 77 78 81 90 94 96 99 96 91 94 95 94 93 96 97 98 98 96 95 98 100 100 100 100 100 100 100 99 100 99 100 100 97 98
99 100 96 79 78 91 92 85 85 88 89 86 92 96 98 100 100 98 94 100 99 100 99 100 100 100 100 100 100 100 100 100 98 100 100 100 100 99 96 97 98 96 95
92 86 81 88 95 93 95 94 88 96 100 100 98 95 97 100 100 100 100 100 100 100 100 100 100 100 100 100 99 99 99 99 98 98 97 97 97 97 98 96 96 96 95
83 78 75 77 72 77 98 100 99 99 100 100 100 100 100 100 100 100 100 100 100 100 100 100 99 95 100 97 98 97 97 98 97 96 97 95 96 95 96 96 95 96 95
92 86 83 79 77 74 68 76 89 97 99 99 100 99 98 99 99 98 99 99 99 99 99 99 98 97 96 97 96 96 96 96 96 95 95 94 94 95 95 94 94 93 89
99 99 98 95 90 85 84 86 88 89 94 89 96 95 96 94 98 97 99 99 96 96 96 96 97 96 97 97 96 96 96 96 95 95 95 96 96 94 93 91 86 85 85
100 99 99 99 100 99 94 96 98 100 100 100 98 90 95 93 89 93 94 97 95 96 97 95 95 96 96 95 95 95 96 95 95 95 95 95 91 86 82 80 81 82 90
99 100 100 100 100 100 98 96 96 100 98 99 100 100 98 96 97 95 96 100 96 95 95 96 95 95 95 95 95 95 94 94 94 92 86 81 81 82 79 71 67 72 77
94 95 96 98 97 95 96 96 94 92 92 94 95 94 97 96 96 96 98 96 94 95 95 95 95 95 95 95 96 96 94 87 78 73 67 62 60 60 55 54 65 76 80
88 91 94 95 96 96 96 95 94 94 94 97 98 94 94 95 94 94 95 95 95 95 96 95 96 95 96 95 92 90 80 67 57 56 55 52 53 53 60 72 78 79 80
93 95 92 93 95 95 96 96 95 95 96 95 95 96 96 96 95 95 95 96 96 96 94 86 85 82 73 62 60 63 63 60 60 59 57 51 54 61 70 81 88 93 93
94 94 93 93 94 94 95 94 95 95 95 95 96 96 96 93 92 90 89 88 88 90 84 71 62 56 53 49 45 40 37 35 38 43 47 51 57 70 83 93 96 98 95
95 95 96 95 96 95 95 95 94 92 93 94 98 98 95 72 57 48 45 45 48 51 50 46 46 44 38 35 34 34 35 40 47 50 50 52 54 62 75 90 93 90 91
93 96 96 95 95 98 96 97 96 95 93 91 83 70 61 58 56 52 49 42 43 44 39 35 34 39 39 38 39 37 43 48 49 50 53 54 56 58 59 66 79 88 89
70 72 74 80 85 88 92 93 95 98 98 97 96 97 89 79 68 62 59 56 51 47 44 40 37 40 42 41 41 46 54 57 57 56 53 50 51 53 58 70 86 94 97
63 71 79 86 90 92 91 95 96 97 98 99 100 100 100 100 87 67 60 56 50 45 43 40 43 48 48 48 52 54 54 53 51 51 49 50 54 59 68 79 85 84 91
58 66 70 79 84 85 88 92 90 89 90 94 98 90 86 91 79 53 48 50 47 48 48 50 52 50 50 49 48 49 51 54 54 52 53 60 70 76 80 82 83 86 90